Location: Fort Worth, Tx
(32.7431°N, 97.3695°W)
Time: 07:02:17
(UTC-05:00)

Explorer 11/Cluster Stage 4 - Pass Details

Date: 08 February 2026
Orbit: 463 x 1176 km, 28.8° (Epoch: 5 March)

Event Time Altitude Azimuth Distance (km) Brightness Sun altitude
Rises 22:23:20 0° 270° (W) 3,105 10.5 -41.2°
Reaches altitude 10° 22:25:40 10° 263° (W) 2,292 9.6 -41.7°
Enters shadow 22:26:31 15° 259° (W) 2,014 9.2 -41.9°
